カタログに戻る

TJS-4

運用中通信GEO
NORAD 44637·PAYLOAD·🇨🇳 China

打ち上げ Oct 17, 2019 から Xichang Satellite Launch Center

Loading…

TLE

最新Source: Space-Track

元期: Sep 14, 2026, 15:54 UTC

1 44637U 19070A   26257.66298141 -.00000178  00000-0  00000+0 0  9996
2 44637   0.0486  98.2747 0002858 153.4573  64.0499  1.00274829 25431

AllMySatでTJS-4をリアルタイム追跡

Download on the App Store